Regional Weather Roundup
Issued by NWS Columbia, SC

Home | Current Version | Previous Version | Text Only | Print | Product List | Glossary On
Versions: 1 2 3 4 5 6 7 8 9 10 11 12 13 14 15 16 17 18 19 20 21 22 23 24 25 26 27
000
ASUS42 KCAE 241210
RWRCAE
REGIONAL WEATHER ROUNDUP
NATIONAL WEATHER SERVICE COLUMBIA SC
800 AM EDT THU APR 24 2014

NOTE: "FAIR" INDICATES FEW OR NO CLOUDS BELOW 12,000 FEET WITH NO
SIGNIFICANT WEATHER AND/OR OBSTRUCTIONS TO VISIBILITY.

NOT ALL STATIONS ARE QUALITY CONTROLLED BY THE NATIONAL
WEATHER SERVICE. USE DATA WITH CAUTION...ESPECIALLY
DEWPOINT OBSERVATIONS.

SCZ001>056-GAZ040-063>065-077-241300-
...UPSTATE SOUTH CAROLINA...

CITY           SKY/WX    TMP DP  RH WIND       PRES   REMARKS
ANDERSON       SUNNY     54  34  46 NE7       30.09R
6HR MIN TEMP:  51; 6HR MAX TEMP:  56;

LIBERTY        FAIR      49   0  13 MISG      30.10R
6HR MIN TEMP:  42; 6HR MAX TEMP:  83;

SPARTANBURG    FAIR      52  37  58 N6        30.10R
CLEMSON        SUNNY     55  31  39 NE6       30.11R
6HR MIN TEMP:  51; 6HR MAX TEMP:  60;

GREENVILLE     SUNNY     53  32  44 NE8       30.12R
6HR MIN TEMP:  49; 6HR MAX TEMP:  60;

GREENWOOD      SUNNY     53  37  54 NE6       30.11R
6HR MIN TEMP:  48; 6HR MAX TEMP:  55;

GREER          SUNNY     51  34  52 N6        30.10R
6HR MIN TEMP:  47; 6HR MAX TEMP:  58;

ROCK HILL      SUNNY     51  36  56 CALM      30.12R
6HR MIN TEMP:  44; 6HR MAX TEMP:  52;

LAURENS        FAIR      52  36  54 NE6       30.11R


...CENTRAL SOUTH CAROLINA...

CITY           SKY/WX    TMP DP  RH WIND       PRES   REMARKS
COLUMBIA APT   SUNNY     57  35  43 E8        30.08R
6HR MIN TEMP:  49; 6HR MAX TEMP:  61;

COLUMBIA OWENS SUNNY     56  35  45 VRB6      30.09R
6HR MIN TEMP:  51; 6HR MAX TEMP:  60;

DARLINGTON     SUNNY     54  37  54 NE7       30.11R
6HR MIN TEMP:  48; 6HR MAX TEMP:  54;

FLORENCE       SUNNY     53  39  59 NE7       30.09R
6HR MIN TEMP:  48; 6HR MAX TEMP:  55;

MCENTIRE ANGB  MOSUNNY   55  37  49 E9        30.08R
6HR MIN TEMP:  50; 6HR MAX TEMP:  58;

ORANGEBURG     SUNNY     55  38  52 NE9       30.06R
6HR MIN TEMP:  53; 6HR MAX TEMP:  57;

SUMTER SHAW    SUNNY     53  39  57 NE12      30.07R
6HR MIN TEMP:  46; 6HR MAX TEMP:  56;

NEWBERRY       FAIR      52  36  54 NE6       30.13R
AIKEN          FAIR      54  41  62 NE10      30.10R
BARNWELL       FAIR      55  39  54 NE7       30.06R
MANNING        FAIR      55  43  62 NE8       30.07R
CAMDEN         FAIR      54  37  54 E6        30.11R
LANCASTER      FAIR      46  39  76 CALM      30.11R
WINNSBORO      FAIR      54  36  50 NE8       30.09R


...EASTERN AND COASTAL SOUTH CAROLINA...

CITY           SKY/WX    TMP DP  RH WIND       PRES   REMARKS
MYRTLE BEACH   SUNNY     55  43  62 NE10      30.08R
N MYRTLE BCH   SUNNY     54  42  64 NE10      30.08R
6HR MIN TEMP:  44; 6HR MAX TEMP:  54;

CONWAY         FAIR      52  43  71 NE5       30.09R HAZE
MARION         FAIR      52  37  58 NE8       30.10R
HARTSVILLE     FAIR      54  34  47 NE10      30.10R
FLORENCE       SUNNY     53  39  59 NE7       30.09R
6HR MIN TEMP:  48; 6HR MAX TEMP:  55;

DARLINGTON     SUNNY     54  37  54 NE7       30.11R
6HR MIN TEMP:  48; 6HR MAX TEMP:  54;

CHARLESTON APT SUNNY     59  51  75 NE10      30.04R
6HR MIN TEMP:  56; 6HR MAX TEMP:  61;

MOUNT PLEASANT DRIZZLE   57  52  82 N5        30.04R
WALTERBORO     SUNNY     57  50  77 NE3       30.06R
BEAUFORT       PTSUNNY   62  57  83 E7        30.02R
6HR MIN TEMP:  57; 6HR MAX TEMP:  64;



...EASTERN GEORGIA...

CITY           SKY/WX    TMP DP  RH WIND       PRES   REMARKS
AUGUSTA BUSH F SUNNY     52  48  86 CALM      30.06R
6HR MIN TEMP:  44; 6HR MAX TEMP:  52;

AUGUSTA DANIEL SUNNY     59  34  39 NE10      30.06R
6HR MIN TEMP:  58; 6HR MAX TEMP:  65;

THOMSON        SUNNY     55  41  60 E8        30.10R
6HR MIN TEMP:  45; 6HR MAX TEMP:  55;

WASHINGTON     FAIR      54  37  54 E8        30.06R
CLAXTON        FAIR     N/A N/A N/A CALM      30.02R
SYLVANIA       SUNNY     58  51  75 NE6       30.04R
6HR MIN TEMP:  54; 6HR MAX TEMP:  58;

STATESBORO     MOSUNNY   56  51  85 NE5       30.02R
6HR MIN TEMP:  49; 6HR MAX TEMP:  56;

SAVANNAH       SUNNY     60  56  86 N5        30.01R
6HR MIN TEMP:  54; 6HR MAX TEMP:  61;



...SOUTHERN NORTH CAROLINA...

CITY           SKY/WX    TMP DP  RH WIND       PRES   REMARKS
CHARLOTTE      MOSUNNY   53  33  46 E7        30.11R
6HR MIN TEMP:  50; 6HR MAX TEMP:  56;

MONROE         SUNNY     51  34  52 NE6       30.10R
6HR MIN TEMP:  49; 6HR MAX TEMP:  56;

WADESBORO      SUNNY     45  40  85 CALM      30.12R
6HR MIN TEMP:  37; 6HR MAX TEMP:  45;

ROCKINGHAM       N/A     50  36  59 NE3       30.11R
6HR MIN TEMP:  45; 6HR MAX TEMP:  53;

RUTHERFORDTON  SUNNY     44  37  78 NW7       30.13R
6HR MIN TEMP:  39; 6HR MAX TEMP:  51;

ASHEVILLE      SUNNY     41  34  76 SE3       30.12R
6HR MIN TEMP:  38; 6HR MAX TEMP:  50;


$$



USA.gov is the U.S. government's official web portal to all federal, state and local government web resources and services.